Wind_Speed
6 7 7 8 8 7 6 6 5 5 4 3 3 4 5 5 6 7 8 8 8 8 8 8 8 7 7 8 8 9 8 7 7 6 5 4 4 5 5 4 4 4 5
6 7 8 8 8 7 6 5 5 4 3 3 3 2 3 4 5 7 8 8 8 8 7 8 8 7 7 7 7 8 7 7 6 5 4 5 5 5 5 5 4 4 5
7 8 8 8 7 6 6 5 4 3 3 2 1 1 2 3 5 6 7 8 8 8 8 7 7 7 6 6 7 7 6 6 6 5 6 5 5 5 5 5 4 5 6
8 8 8 8 7 7 7 6 5 4 3 2 1 0 1 2 4 5 7 7 7 7 7 8 7 7 6 6 6 6 6 6 6 6 6 6 5 6 6 6 5 5 5
9 9 9 9 9 8 8 7 6 5 4 3 3 3 2 3 4 5 6 7 7 7 7 8 8 7 7 6 6 6 6 6 6 7 6 6 5 6 6 6 5 6 7
10 10 10 10 10 10 9 9 8 8 7 6 5 5 5 5 5 5 5 6 6 7 7 7 7 7 7 7 6 6 6 6 6 7 6 6 6 6 7 6 6 6 7
10 10 10 10 10 10 10 10 10 9 9 8 7 7 7 6 6 6 6 6 6 6 7 7 7 7 7 7 6 6 6 6 6 6 6 6 6 6 6 6 6 6 7
10 11 11 11 11 11 11 10 10 10 9 9 9 8 7 7 7 7 6 6 6 6 7 7 7 7 6 6 5 5 5 6 6 6 6 5 6 6 6 5 5 7 7
10 11 11 11 11 11 11 11 10 10 9 9 9 8 8 7 7 7 6 6 5 5 6 6 7 6 6 6 5 4 4 5 6 6 6 5 5 5 5 5 5 5 6
9 10 11 11 11 12 11 11 11 11 10 9 9 8 8 8 7 6 6 5 4 4 5 5 6 6 6 6 5 5 4 4 4 5 5 6 6 5 5 5 5 5 5
8 9 10 10 11 11 12 11 11 11 10 10 9 8 8 7 7 6 5 5 4 3 3 4 6 6 6 6 5 5 5 4 4 5 5 5 6 5 6 5 6 6 7
7 8 9 10 10 11 11 11 11 10 10 9 9 8 7 7 7 6 5 4 3 2 2 3 4 5 5 5 6 6 6 5 5 5 5 5 5 6 6 6 6 7 8
6 7 8 9 10 10 10 11 10 10 9 9 8 8 8 7 7 5 5 4 3 2 2 2 3 3 4 4 5 6 7 7 7 7 7 6 7 7 8 8 8 9 10
5 6 6 7 8 9 9 10 10 9 9 9 9 8 8 8 7 6 5 4 3 2 1 1 2 2 3 4 4 5 6 7 7 8 8 8 8 9 9 10 11 11 11
4 4 5 5 6 7 8 8 9 9 9 9 9 8 9 8 7 7 6 5 4 3 2 1 1 1 2 3 4 5 5 6 7 8 8 9 10 10 10 11 12 13 13
2 2 3 4 4 5 6 7 7 8 8 8 8 8 7 8 8 7 6 5 4 4 3 2 1 2 3 4 6 6 6 7 8 8 9 10 11 11 12 13 13 14 15
1 1 1 2 3 4 4 5 6 6 6 7 6 6 6 7 7 6 6 5 4 4 4 3 3 5 6 6 7 6 7 7 8 8 9 10 11 12 13 14 15 16 16
2 1 0 0 1 2 3 3 4 4 4 5 5 5 6 6 6 6 6 5 5 5 5 5 6 6 6 7 8 7 8 9 10 10 11 12 13 14 15 16 16 17 18
4 3 2 2 1 1 2 2 3 3 3 4 4 5 5 5 5 5 6 6 6 6 7 7 8 8 8 8 8 8 10 11 11 12 14 15 16 17 17 18 19 20 21
6 5 4 4 3 3 3 3 3 3 3 3 4 4 4 5 5 5 6 6 7 8 9 9 10 10 10 10 10 11 13 14 14 15 17 18 19 20 20 21 22 23 24
8 8 7 6 6 5 5 5 5 5 5 5 5 5 5 6 6 7 7 8 9 10 11 11 12 13 13 13 14 14 15 16 18 19 20 21 22 22 23 24 25 26 27
9 9 9 9 8 8 7 7 7 7 7 7 7 7 7 8 8 9 10 10 11 12 13 14 14 15 16 16 17 17 18 19 20 21 22 23 24 25 26 27 28 28 29
11 10 10 10 10 10 10 9 9 9 9 9 9 9 9 10 10 11 12 13 13 13 15 15 16 17 17 18 19 19 20 21 22 23 24 25 25 26 28 29 30 30 31
13 12 12 12 12 12 11 11 11 11 11 10 11 11 11 12 12 13 14 15 15 16 17 17 18 19 19 20 21 22 23 24 24 25 26 26 27 28 29 31 32 33 34
15 15 14 14 13 13 13 13 13 13 13 13 13 13 14 14 15 16 16 17 17 18 19 19 21 21 22 23 24 24 25 26 27 27 28 28 29 30 31 33 35 36 37
18 17 16 16 15 15 15 15 15 15 15 15 15 16 16 17 17 18 19 20 20 20 21 22 23 24 25 26 26 27 28 28 29 29 30 31 32 32 32 34 36 38 39
Wind_Direction
349 346 341 338 333 330 329 326 318 316 316 312 286 255 238 231 228 224 222 220 218 216 217 218 218 217 217 217 219 220 222 227 236 238 235 225 218 209 209 219 237 216 206
354 350 347 346 345 344 338 329 325 326 321 312 299 273 246 235 225 219 213 212 210 209 209 208 208 207 207 212 214 215 216 221 227 226 212 208 204 193 202 210 206 188 179
3 359 0 1 1 2 359 352 346 342 335 328 320 287 239 226 217 209 204 205 204 201 199 197 198 198 198 200 202 203 206 211 213 207 197 195 197 193 199 201 198 188 175
14 12 14 15 15 15 14 13 13 10 9 10 18 65 173 189 192 195 196 196 194 193 192 189 189 192 190 190 191 194 198 204 208 204 200 194 193 195 199 201 200 190 182
24 26 28 28 29 27 28 31 35 37 45 56 72 96 110 137 158 173 181 184 187 185 184 181 185 188 183 181 184 186 193 195 200 199 197 192 192 195 197 200 196 189 190
34 34 34 35 35 37 40 43 47 51 58 66 79 93 105 115 126 144 154 165 175 180 181 177 179 182 179 180 183 186 192 192 193 195 199 195 192 194 199 198 193 193 197
39 37 38 39 40 45 49 52 53 57 62 68 77 83 92 104 114 127 138 149 159 164 167 169 171 175 176 180 183 188 194 194 195 196 204 192 190 196 202 207 208 209 203
44 41 45 48 48 50 53 55 58 61 66 73 77 82 87 95 108 119 127 135 149 158 162 163 168 170 175 179 185 194 197 194 195 203 193 183 192 196 202 208 208 209 211
48 49 50 51 52 52 54 56 58 62 66 70 74 79 86 93 102 110 117 123 139 159 166 170 175 178 182 181 185 188 194 193 201 206 206 200 200 204 209 215 209 210 213
55 55 53 52 54 54 55 58 60 63 66 69 71 75 78 84 95 106 110 114 125 140 161 176 188 191 193 195 198 202 208 201 211 211 206 207 209 215 219 219 213 215 223
59 60 57 57 57 57 58 60 64 65 67 69 69 72 74 76 84 100 108 111 120 133 154 177 188 194 204 209 215 219 224 222 226 221 214 208 213 223 230 233 226 223 226
63 65 62 61 60 61 60 61 62 63 64 64 66 70 71 71 77 88 94 102 105 115 139 173 188 196 209 218 225 230 235 238 241 242 231 226 231 238 242 245 239 238 235
70 70 66 63 62 60 58 59 60 60 60 59 60 65 67 67 69 76 78 83 88 98 128 167 182 201 213 223 233 242 246 248 250 254 250 243 243 247 250 254 254 248 245
75 71 68 62 59 58 57 57 58 59 60 62 63 64 65 66 65 68 70 68 63 71 93 132 178 210 225 236 244 254 255 256 257 256 258 252 251 252 254 256 257 256 253
83 71 64 63 60 58 56 57 57 59 61 63 63 62 60 59 60 61 59 56 51 54 61 81 149 212 242 250 257 265 266 269 263 262 264 261 258 256 256 259 259 261 262
103 77 60 62 60 58 56 58 57 58 59 59 58 58 56 54 53 52 49 44 39 33 25 22 341 299 283 278 269 268 273 278 272 268 270 270 269 267 264 265 268 266 266
154 116 59 60 59 55 55 56 54 53 54 53 51 48 46 43 41 40 39 36 30 21 6 351 335 321 305 296 292 282 279 283 277 274 278 279 276 275 272 271 273 272 271
200 205 208 48 47 50 49 45 42 42 41 39 36 34 31 29 26 25 22 19 14 6 358 350 335 328 313 301 298 292 287 286 285 282 281 281 280 278 278 277 276 276 274
224 232 245 273 296 349 2 10 13 18 20 18 15 12 11 10 9 6 4 359 355 347 341 337 332 332 323 312 304 300 293 291 292 286 283 283 282 282 282 282 281 282 281
237 243 253 268 273 286 298 312 324 335 344 349 353 353 351 348 344 344 342 339 335 331 328 326 324 326 324 315 309 304 299 297 296 293 288 285 283 283 285 285 284 284 284
245 250 256 263 271 276 283 292 299 308 313 315 316 319 323 326 326 325 324 324 322 320 321 321 319 316 314 312 308 303 297 296 295 294 291 287 283 282 283 285 284 284 284
249 254 257 261 266 271 279 285 288 296 300 303 305 306 305 306 311 313 313 313 313 313 312 314 314 312 310 309 308 305 301 298 297 295 293 290 285 284 283 285 285 285 285
252 258 261 264 267 269 274 278 282 291 295 297 301 304 305 303 302 305 309 309 309 310 310 310 310 309 309 308 307 306 305 303 300 298 295 293 290 288 286 285 286 286 286
252 256 261 266 270 271 273 275 279 285 289 292 295 299 300 301 301 303 305 307 307 307 307 307 307 308 308 308 307 306 306 304 301 299 296 294 292 291 289 288 288 288 287
253 256 260 265 268 271 273 276 277 281 284 288 291 294 296 297 298 300 302 304 305 305 305 305 305 307 307 307 307 306 307 305 302 301 299 296 293 293 292 291 290 289 289
255 257 260 263 266 268 271 275 278 280 282 285 288 290 293 295 297 299 300 301 302 303 304 304 304 304 305 305 305 305 306 305 304 302 300 298 296 294 292 292 292 290 289
Height
5869 5867 5866 5864 5862 5861 5860 5859 5858 5857 5857 5857 5857 5857 5858 5859 5860 5861 5862 5863 5865 5866 5868 5869 5871 5873 5874 5875 5876 5877 5879 5880 5880 5880 5879 5879 5878 5878 5880 5881 5881 5879 5879
5868 5867 5865 5863 5861 5860 5858 5857 5857 5856 5856 5856 5856 5856 5856 5857 5858 5859 5860 5862 5863 5865 5866 5868 5870 5871 5873 5874 5875 5876 5877 5878 5878 5878 5878 5878 5878 5879 5881 5881 5882 5880 5881
5868 5866 5864 5862 5860 5859 5858 5856 5856 5855 5855 5855 5855 5855 5855 5856 5857 5858 5859 5860 5862 5864 5865 5867 5869 5870 5872 5873 5874 5875 5876 5877 5878 5878 5878 5879 5879 5880 5881 5882 5882 5882 5882
5868 5866 5864 5862 5860 5859 5857 5856 5855 5854 5854 5854 5854 5854 5854 5855 5856 5857 5858 5860 5861 5863 5864 5866 5868 5869 5871 5872 5873 5875 5876 5877 5877 5878 5878 5879 5879 5880 5881 5882 5882 5883 5883
5868 5866 5864 5862 5860 5859 5857 5856 5855 5854 5854 5854 5854 5854 5854 5855 5856 5857 5858 5859 5861 5863 5864 5866 5867 5869 5870 5871 5873 5874 5875 5876 5877 5878 5878 5879 5879 5880 5880 5881 5882 5883 5883
5869 5867 5865 5863 5861 5859 5858 5857 5855 5855 5854 5854 5854 5854 5854 5855 5856 5857 5858 5859 5861 5862 5864 5865 5867 5868 5870 5871 5873 5874 5875 5876 5877 5877 5878 5879 5879 5880 5880 5880 5881 5882 5883
5870 5868 5866 5864 5862 5861 5859 5858 5857 5856 5855 5855 5855 5855 5855 5856 5857 5858 5859 5860 5861 5862 5864 5865 5867 5868 5870 5871 5872 5874 5874 5875 5876 5877 5877 5878 5879 5879 5880 5880 5880 5881 5882
5871 5869 5867 5866 5864 5862 5861 5860 5859 5858 5857 5857 5857 5857 5857 5858 5858 5859 5860 5861 5862 5863 5865 5866 5867 5869 5870 5871 5872 5873 5874 5875 5875 5876 5877 5877 5878 5879 5879 5879 5880 5880 5881
5873 5871 5869 5868 5866 5864 5863 5861 5860 5860 5859 5859 5859 5859 5859 5859 5860 5860 5861 5862 5863 5864 5865 5866 5868 5869 5870 5871 5872 5873 5873 5874 5875 5875 5876 5877 5877 5878 5878 5878 5879 5880 5880
5874 5873 5871 5870 5868 5866 5865 5863 5862 5862 5861 5861 5860 5860 5861 5861 5861 5862 5863 5863 5864 5864 5865 5867 5868 5869 5870 5871 5872 5873 5873 5874 5874 5875 5875 5876 5877 5877 5878 5878 5879 5879 5880
5876 5875 5873 5872 5870 5869 5867 5866 5865 5864 5863 5863 5862 5862 5862 5862 5862 5863 5863 5864 5865 5865 5866 5866 5867 5868 5870 5871 5872 5872 5873 5873 5874 5874 5875 5875 5876 5877 5877 5878 5878 5879 5880
5878 5877 5876 5874 5873 5871 5870 5868 5867 5866 5866 5865 5864 5864 5864 5864 5864 5864 5864 5865 5865 5866 5866 5867 5867 5868 5869 5870 5871 5871 5872 5873 5873 5873 5873 5874 5875 5876 5876 5877 5878 5878 5879
5880 5879 5878 5876 5875 5874 5872 5871 5870 5869 5868 5867 5866 5866 5866 5865 5865 5865 5866 5866 5866 5866 5866 5867 5867 5868 5868 5869 5870 5870 5871 5872 5872 5872 5872 5873 5874 5874 5875 5876 5876 5877 5878
5881 5880 5879 5878 5877 5876 5874 5873 5872 5871 5870 5869 5868 5868 5867 5867 5867 5867 5867 5867 5867 5867 5867 5867 5867 5867 5867 5868 5869 5869 5870 5870 5870 5871 5871 5871 5872 5873 5873 5874 5874 5875 5876
5882 5881 5881 5880 5879 5877 5876 5875 5874 5873 5872 5871 5870 5870 5869 5869 5868 5868 5868 5868 5868 5868 5867 5867 5867 5867 5867 5867 5868 5868 5868 5868 5868 5869 5869 5869 5870 5870 5871 5871 5871 5872 5873
5883 5882 5882 5881 5880 5879 5878 5877 5876 5875 5874 5873 5872 5871 5871 5870 5870 5869 5869 5868 5868 5868 5867 5867 5867 5867 5866 5866 5866 5866 5866 5866 5866 5866 5867 5867 5867 5868 5868 5868 5869 5869 5869
5883 5883 5882 5882 5881 5880 5879 5878 5877 5876 5875 5874 5873 5873 5872 5871 5871 5870 5870 5869 5868 5868 5867 5867 5866 5865 5864 5864 5863 5863 5864 5864 5864 5864 5865 5865 5865 5865 5865 5865 5865 5865 5865
5882 5882 5882 5882 5881 5880 5880 5879 5878 5877 5876 5875 5874 5873 5872 5872 5871 5871 5870 5869 5868 5868 5867 5866 5865 5864 5862 5862 5861 5861 5862 5862 5862 5862 5862 5862 5862 5862 5861 5861 5861 5861 5861
5882 5882 5882 5882 5881 5880 5880 5879 5878 5877 5876 5875 5874 5873 5872 5872 5871 5870 5870 5869 5868 5867 5866 5865 5864 5862 5860 5860 5859 5859 5859 5859 5859 5858 5858 5858 5858 5857 5857 5857 5856 5856 5855
5881 5881 5881 5881 5880 5880 5879 5878 5877 5876 5875 5875 5874 5873 5872 5871 5871 5870 5869 5868 5867 5866 5865 5864 5863 5861 5860 5858 5858 5857 5856 5856 5855 5854 5854 5853 5853 5852 5852 5851 5851 5850 5849
5879 5879 5880 5879 5879 5879 5878 5877 5876 5875 5874 5874 5873 5872 5871 5870 5870 5869 5868 5867 5866 5865 5864 5862 5861 5859 5858 5856 5855 5854 5853 5852 5851 5850 5849 5848 5847 5846 5846 5845 5844 5843 5842
5877 5877 5878 5878 5877 5877 5876 5876 5875 5874 5873 5872 5871 5870 5869 5869 5868 5867 5866 5865 5864 5863 5862 5860 5859 5857 5855 5854 5852 5850 5849 5848 5846 5845 5842 5841 5840 5839 5838 5838 5836 5835 5834
5875 5875 5875 5875 5875 5875 5874 5873 5873 5872 5871 5870 5869 5868 5867 5866 5866 5865 5864 5863 5862 5860 5859 5857 5856 5854 5852 5850 5848 5846 5844 5842 5840 5838 5836 5834 5832 5831 5830 5829 5828 5826 5825
5872 5872 5872 5872 5872 5872 5871 5871 5870 5870 5869 5868 5867 5866 5865 5864 5863 5862 5861 5860 5858 5857 5855 5853 5852 5850 5848 5846 5843 5841 5838 5836 5833 5830 5828 5827 5825 5823 5821 5819 5818 5816 5815
5868 5869 5869 5869 5869 5869 5868 5868 5867 5867 5866 5865 5864 5863 5862 5861 5860 5859 5858 5856 5855 5853 5851 5849 5847 5845 5842 5840 5838 5835 5832 5829 5826 5823 5820 5818 5817 5815 5813 5811 5808 5806 5804
5864 5865 5865 5865 5865 5865 5864 5864 5863 5863 5862 5862 5861 5860 5859 5858 5856 5855 5853 5852 5850 5848 5846 5844 5842 5839 5837 5834 5831 5828 5825 5822 5818 5816 5813 5810 5808 5806 5805 5803 5799 5796 5793